User: anonymous   Login
Location: Wheeling
(40.0640°N, 80.7210°W)
Time: 02:40:12
(UTC-04:00)
Language:

N. Korean satellite - Orbit

View from above orbital plane
View from above orbital plane
View from above satellite
View from above satellite

Ground track
Ground track

The orbit data is extracted from the following two-line orbital elements,

1 39026U 12072A   21268.25613020  .00005674  00000-0  18946-3 0  9993
2 39026  97.2520 258.7625 0036078  31.3391 328.9990 15.30797489488290
Epoch (UTC): 25 September 2021 06:08:49
Eccentricity: 0.0036078
inclination: 97.2520°
perigee height: 449 km
apogee height: 498 km
right ascension of ascending node: 258.7625°
argument of perigee: 31.3391°
revolutions per day: 15.30797489
mean anomaly at epoch: 328.9990°
orbit number at epoch: 48829

The dashed part of the orbit path shows where the satellite is in the earth's shadow,  

DLR